Weather Roundup
Issued by NWS

Home | Current Version | Previous Version | Graphics & Text | Print | Product List | Glossary Off
Versions: 1 2 3 4 5 6 7 8 9 10 11 12 13 14 15 16 17 18 19 20 21 22 23 24 25 26 27 28 29 30 31 32 33 34 35 36 37 38 39 40 41 42 43 44 45 46 47 48 49 50

000
NZUS93 KARX 292210
HRRWXR

CURRENT HOURLY OBSERVATIONS ACROSS
MUCH OF THE UPPER MISSISSIPPI VALLEY
NATIONAL WEATHER SERVICE LA CROSSE WI
400 PM CST THU JAN 29 2015


...SOUTHEAST MINNESOTA...


CITY           SKY/WX    TMP DP  RH WIND       PRES   REMARKS
ROCHESTER      CLOUDY    27  20  75 NW23G31   30.25R WCI  12
ROCHESTER/MAYO CLOUDY    28  18  64 NW15G28   30.26R WCI  17
WINONA         CLOUDY    32  23  69 NW23G29   30.24R WCI  19
AUSTIN         CLOUDY    28  21  74 NW23G32   30.29R WCI  14
ALBERT LEA     CLOUDY    27  19  74 NW15G23   30.31R WCI  15
DODGE CENTER   CLOUDY    27  21  80 NW21G26   30.26R WCI  13
PRESTON        CLOUDY    28  21  74 NW18G25   30.24R WCI  16
OWATONNA       CLOUDY    25  18  74 NW28      30.31R WCI   8
FARIBAULT      CLOUDY    27  19  74 NW16      30.33R WCI  14
$$

...ELSEWHERE IN MINNESOTA...


CITY           SKY/WX    TMP DP  RH WIND       PRES   REMARKS
MINNEAPOLIS    PTSUNNY   27  15  61 NW17G30   30.32R WCI  14
INTNL FALLS    CLOUDY    10   1  67 NW16G22   30.37R WCI  -7
DULUTH         MOCLDY    16   6  65 NW14G25   30.25R WCI   2
RED WING       CLOUDY    28  16  59 NW12G23   30.28R WCI  18
REDWOOD FALLS  PTSUNNY   23  14  68 NW18G36   30.42R WCI   9
MANKATO        CLOUDY    27  16  63 NW20G30   30.35R WCI  13
WORTHINGTON    CLOUDY    27  19  74 NW21      30.40S WCI  13
FAIRMONT       CLOUDY    27  16  63 NW24G39   30.36R WCI  12
$$

...SOUTHWEST WISCONSIN...


CITY           SKY/WX    TMP DP  RH WIND       PRES   REMARKS
LA CROSSE      CLOUDY    34  22  61 NW18G28   30.20R WCI  23
PRAIRIE DU CHI CLOUDY    35  21  57 NW12G25   30.19R WCI  27
BOSCOBEL       CLOUDY    36  24  62 NW10G22   30.17R WCI  28
LONE ROCK      CLOUDY    35  23  61 NW15G24   30.14R WCI  25
PLATTEVILLE    CLOUDY    34  27  74 W17G25    30.14R WCI  24
FORT MC COY    CLOUDY    33  21  63 NW15G28   30.18R WCI  22
CAMP DOUGLAS   CLOUDY    34  23  64 NW21G26   30.13R WCI  22
VIROQUA        CLOUDY    32  22  68 NW20      30.15R WCI  20
WIS DELLS      CLOUDY    33  21  59 NW12G23   30.10R WCI  25
$$

...ELSEWHERE IN WISCONSIN...


CITY           SKY/WX    TMP DP  RH WIND       PRES   REMARKS
MILWAUKEE      CLOUDY    35  22  58 NW16G24   30.04R WCI  25
MADISON        CLOUDY    34  23  64 NW14G23   30.09R WCI  25
GREEN BAY      CLOUDY    33  20  58 NW13      30.03R WCI  24
EAU CLAIRE     CLOUDY    28  15  58 NW18G28   30.21R WCI  15
BLACK RVR FLS  CLOUDY    33  20  59 NW6G18    30.17R WCI  27
MEDFORD        CLOUDY    26  19  73 NW22G28   30.10R WCI  12
WAUSAU         CLOUDY    29  17  61 NW22G31   30.07R WCI  15
WIS RAPIDS     MOCLDY    32  17  54 N15G38    30.11R WCI  22
MARSHFIELD     CLOUDY    30  20  66 NW28G35   30.11R WCI  15
RICE LAKE      CLOUDY    26  16  64 NW14G21   30.25R WCI  15
$$

...NORTHEAST IOWA...


CITY           SKY/WX    TMP DP  RH WIND       PRES   REMARKS
DECORAH        CLOUDY    32  23  69 NW18G30   30.21R WCI  20
MASON CITY     CLOUDY    28  20  71 NW28G37   30.33R WCI  13
CHARLES CITY   CLOUDY    30  25  80 NW22G35   30.27R WCI  17
OELWEIN        CLOUDY    32  25  74 NW20G28   30.24R WCI  20
$$

...ELSEWHERE IN IOWA...


CITY           SKY/WX    TMP DP  RH WIND       PRES   REMARKS
DES MOINES     CLOUDY    35  22  58 NW18G32   30.36R WCI  24
IOWA CITY      CLOUDY    34  25  69 NW25G36   30.26R WCI  21
FORT DODGE     CLOUDY    30  19  64 NW14G24   30.38R WCI  20
$$

...NORTHERN ILLINOIS...


CITY           SKY/WX    TMP DP  RH WIND       PRES   REMARKS
CHICAGO-OHARE  CLOUDY    34  26  72 NW15G23   30.05R WCI  24
CHICAGO-MIDWAY CLOUDY    36  27  69 NW15      30.06R WCI  27
MOLINE         CLOUDY    35  28  75 NW16      30.19R WCI  25
ROCKFORD       CLOUDY    36  25  64 NW20G30   30.12R WCI  25
PEORIA         CLOUDY    37  31  78 NW10      30.18R WCI  30
$$

NOTE: "FAIR" INDICATES FEW OR NO CLOUDS BELOW 12,000 FEET WITH NO
SIGNIFICANT WEATHER AND/OR OBSTRUCTIONS TO VISIBILITY. WIND
SPEEDS ARE IN MILES-PER-HOUR.



USA.gov is the U.S. government's official web portal to all federal, state and local government web resources and services.